Вернуться в каталог

GREB

АктивенНаукаLEO
NORAD 731·PAYLOAD·🇺🇸 United States

Запущен Jan 11, 1964 с Vandenberg Space Force Base

Loading…

Ближайшие Пролёты (ближайшие 24 часа)

TLE

СвежийSource: Space-Track

Эпоха: Sep 13, 2026, 21:31 UTC

1   731U 64001E   26256.89682709 -.00000021  00000-0  23875-4 0  9995
2   731  69.9044  76.4765 0016602 274.0536  85.8672 13.96320426189967

Отслеживайте GREB в реальном времени с AllMySat

Download on the App Store